Weather History for Pensacola NAS, FL

Change the Weather History Date:

Tuesday, October 16, 2012

  Actual Average Record
Temperature  
Mean Temperature 64 °F -  
Max Temperature 77 °F 77 °F 87 °F (1998)
Min Temperature 53 °F 58 °F 46 °F (2003)
Degree Days  
Heating Degree Days 1    
Growing Degree Days 14 (Base 50)    
Moisture  
Dew Point 52 °F    
Average Humidity 66    
Maximum Humidity 90    
Minimum Humidity 37    
Precipitation  
Precipitation 0.00 in - - ()
Sea Level Pressure  
Sea Level Pressure 29.93 in    
Wind  
Wind Speed 4 mph (NNE)    
Max Wind Speed 10 mph    
Max Gust Speed -    
Visibility 10 miles    
Events      
Averages and records for this station are not official NWS values.
T = Trace of Precipitation, MM = Missing Value Source: NWS Daily Summary

Daily Weather History Graph

Daily Weather History Graph

Search for Another Location

Airport:

Trip Planner

Search our weather history database for the weather conditions in past years. The results will help you decide how hot, cold, wet, or windy it might be!

Date:

Astronomy

Oct. 16, 2012 Rise Set
Actual Time 6:52 AM CDT 6:16 PM CDT
Civil Twilight 6:28 AM CDT 6:40 PM CDT
Nautical Twilight 6:00 AM CDT 7:08 PM CDT
Astronomical Twilight 5:32 AM CDT 7:36 PM CDT
Moon 8:06 AM CDT (10/16) 7:10 PM CDT (10/16)
Length of Visible Light 12h 12m
Length of Day
11h 24m
New Moon, 2% of the Moon is Illuminated
Oct 16
New Moon
Oct 21
First Quarter
Oct 29
Full
Nov 6
Last Quarter
Nov 13
New

Hourly Weather History & Observations

Time (CDT) Temp. Dew Point Humidity Pressure Visibility Wind Dir Wind Speed Gust Speed Precip Events Conditions
12:56 AM 63.0 °F 54.0 °F 72% 29.96 in 10.0 mi North 4.6 mph - N/A   Clear
1:56 AM 60.1 °F 53.1 °F 78% 29.96 in 10.0 mi NNW 4.6 mph - N/A   Clear
2:56 AM 57.9 °F 52.0 °F 81% 29.96 in 10.0 mi NNW 3.5 mph - N/A   Clear
3:56 AM 57.0 °F 52.0 °F 83% 29.95 in 10.0 mi North 5.8 mph - N/A   Clear
4:56 AM 55.0 °F 51.1 °F 86% 29.96 in 10.0 mi North 5.8 mph - N/A   Clear
5:56 AM 54.0 °F 51.1 °F 90% 29.96 in 10.0 mi North 3.5 mph - N/A   Clear
6:04 AM 53.6 °F 50.0 °F 88% 29.95 in 10.0 mi NNE 3.5 mph - N/A   Clear
6:56 AM 54.0 °F 50.0 °F 86% 29.96 in 10.0 mi North 5.8 mph - N/A   Partly Cloudy
7:56 AM 61.0 °F 53.1 °F 75% 29.98 in 10.0 mi NNE 4.6 mph - N/A   Scattered Clouds
8:56 AM 68.0 °F 51.1 °F 55% 29.99 in 10.0 mi ENE 8.1 mph - N/A   Mostly Cloudy
9:56 AM 69.1 °F 51.1 °F 53% 30.00 in 10.0 mi ENE 10.4 mph - N/A   Mostly Cloudy
10:56 AM 72.0 °F 53.1 °F 51% 29.99 in 10.0 mi ENE 8.1 mph - N/A   Mostly Cloudy
11:56 AM 73.9 °F 50.0 °F 43% 29.98 in 10.0 mi ENE 8.1 mph - N/A   Mostly Cloudy
12:56 PM 73.9 °F 48.0 °F 40% 29.96 in 10.0 mi East 6.9 mph - N/A   Mostly Cloudy
1:56 PM 75.0 °F 46.9 °F 37% 29.93 in 10.0 mi Calm Calm - N/A   Mostly Cloudy
2:56 PM 75.0 °F 48.9 °F 40% 29.91 in 10.0 mi East 5.8 mph - N/A   Mostly Cloudy
3:56 PM 75.0 °F 48.9 °F 40% 29.88 in 10.0 mi Calm Calm - N/A   Mostly Cloudy
4:56 PM 73.0 °F 51.1 °F 46% 29.88 in 10.0 mi SSW 3.5 mph - N/A   Mostly Cloudy
5:56 PM 68.0 °F 55.0 °F 63% 29.87 in 10.0 mi Calm Calm - N/A   Mostly Cloudy
6:56 PM 64.0 °F 55.9 °F 75% 29.87 in 10.0 mi Calm Calm - N/A   Mostly Cloudy
7:56 PM 64.9 °F 53.1 °F 65% 29.87 in 10.0 mi NNW 4.6 mph - N/A   Mostly Cloudy
8:56 PM 62.1 °F 53.1 °F 72% 29.89 in 10.0 mi NNE 3.5 mph - N/A   Mostly Cloudy
9:56 PM 63.0 °F 54.0 °F 72% 29.90 in 10.0 mi Calm Calm - N/A   Mostly Cloudy
10:56 PM 63.0 °F 54.0 °F 72% 29.90 in 10.0 mi NE 3.5 mph - N/A   Overcast
11:56 PM 61.0 °F 55.9 °F 83% 29.89 in 10.0 mi Calm Calm - N/A   Clear